Regional Weather Roundup
Issued by NWS

Home | Current Version | Previous Version | Text Only | Print | Product List | Glossary Off
Versions: 1 2 3 4 5 6 7 8 9 10 11 12 13 14 15 16 17 18 19 20 21 22 23 24 25 26 27

000
ASUS45 KBOU 241907
RWRCO

WEATHER ROUNDUP FOR COLORADO
NATIONAL WEATHER SERVICE DENVER/BOULDER CO
100 PM MDT SUN JUL 24 2016

NOTE: "FAIR" INDICATES FEW OR NO CLOUDS BELOW 12000 FEET WITH NO
SIGNIFICANT WEATHER AND/OR OBSTRUCTIONS TO VISIBILITY.

COZ001>005-013-030-031-242000-
...NORTHWEST COLORADO...

CITY           SKY/WX    TMP DP  RH WIND       PRES   REMARKS
CRAIG          FAIR      88  36  15 VRB5      30.22F
HAYDEN         FAIR      81  37  21 NE5       30.25F
MEEKER         FAIR      89  43  20 VRB3      30.22F
MOUNT WERNER   NOT AVBL
STEAMBOAT SPGS FAIR      83  41  22 E7        30.28F
WALDEN         FAIR      79  32  18 SW10G22   30.38F
$$

COZ006>008-011-242000-
...WEST CENTRAL VALLEYS...

CITY           SKY/WX    TMP DP  RH WIND       PRES   REMARKS
GRAND JUNCTION FAIR      94  40  15 VRB3      30.08F
MONTROSE       FAIR      90  43  19 VRB3      30.18F
EAGLE          MOSUNNY   86  37  17 SW12      30.25F
RIFLE          FAIR      90  41  18 CALM      30.15F
DELTA          FAIR      94  36  13 CALM      30.13F
NUCLA          FAIR      91  36  14 N3        30.23S
$$

COZ017>023-064>068-242000-
...SOUTHWEST COLORADO...

CITY           SKY/WX    TMP DP  RH WIND       PRES   REMARKS
DURANGO        FAIR      88  38  17 W5        30.24F
CORTEZ         FAIR      92  41  17 VRB7      30.19F
PAGOSA SPRINGS FAIR      80  33  18 NW12G25   30.35S
TELLURIDE      FAIR      74  41  30 S9        30.49S
WOLF CREEK PAS CLOUDY    52  34  50 N12G30    30.76S
$$

COZ009-010-012-014-032>034-037-058>063-242000-
...CENTRAL COLORADO...

CITY           SKY/WX    TMP DP  RH WIND       PRES   REMARKS
ASPEN          FAIR      83  40  21 NW8       30.33F
BUENA VISTA    FAIR      76  40  27 S7        30.36F
COPPER MTN     CLOUDY    64  28  25 NW12G20   30.72S
BERTHOUD PASS  FAIR      52  37  58 NE5       30.75F
COTTONWOOD PAS FAIR      77  41  27 E7        30.52F
GUNNISON       FAIR      81  39  22 SW7       30.37F
KREMMLING      FAIR      81  32  17 N7        30.32F
LEADVILLE      FAIR      71  32  23 VRB5      30.51F
MONARCH PASS   FAIR      66  32  28 MISG      30.82S
SALIDA         FAIR      85  39  19 N8        30.38F
SUNLIGHT       PTSUNNY   72  43  35 CALM      30.64S
WILKERSON PASS FAIR      72  32  23 W5        30.68F
$$

COZ069>075-242000-
...SAN LUIS VALLEY/SANGRE DE CRISTO MOUNTAINS...

CITY           SKY/WX    TMP DP  RH WIND       PRES   REMARKS
ALAMOSA        FAIR      84  41  21 VRB3      30.33F
LA VETA PASS   PTSUNNY   68  45  42 NE8G21    30.56F
SAGUACHE       FAIR      81  39  22 SW8       30.36F
$$

COZ035-036-038>040-242000-
...NORTHERN COLORADO FRONT RANGE...

CITY           SKY/WX    TMP DP  RH WIND       PRES   REMARKS
DENVER INTL AP FAIR      90  43  19 VRB7      30.14F
DMNS CITY PARK   N/A     90  37  15 E1G13     30.13F
AURORA         MOSUNNY   91  38  15 S2        30.16F
FRONT RANGE AP PTSUNNY   91  46  21 NE6       30.17F
ERIE MUNI ARPT FAIR      90  44  20 NW7       30.13F
BOULDER MUN AP FAIR      86  50  28 N7        30.15F
CENTENNIAL     FAIR      90  34  13 S8        30.17F
BROOMFIELD     PTSUNNY   90  41  18 NE5       30.18F
LONGMONT       FAIR      89  50  26 NE5       30.15F
$$

COZ041-046-047-076>085-087-088-242000-
...PIKES PEAK/PALMER DIVIDE AND SOUTHERN FOOTHILLS...

CITY           SKY/WX    TMP DP  RH WIND       PRES   REMARKS
COLO. SPRINGS  PTSUNNY   83  47  28 S6        30.24F THUNDER
A. F. ACADEMY  FAIR      86  46  25 S16       30.24F
SCHRIEVER AFB  NOT AVBL
ELLICOTT       FAIR     N/A N/A N/A S6        30.22F
FALCON         FAIR      85  43  22 SE8       30.30F
FORT CARSON    FAIR      90  48  24 VRB1      30.20F THUNDER
LIMON          FAIR      86  49  27 VRB3G18   30.19F
MONUMENT HILL  FAIR      82  39  21 SW7       30.31F
TRINIDAD       NOT AVBL
$$

COZ042>045-048>051-090-091-242000-
...NORTHEAST COLORADO...

CITY           SKY/WX    TMP DP  RH WIND       PRES   REMARKS
GREELEY ARPT   FAIR      88  61  40 SE15      30.14F
AKRON          FAIR      82  60  47 SE20G25   30.17F
BURLINGTON     FAIR      90  55  30 E14G22    30.13F
WRAY           NOT AVBL
STERLING       FAIR      84  59  42 SE13      30.13F
HOLYOKE        FAIR      81  55  41 W18G30    30.11F
FORT MORGAN    FAIR      86  57  36 SE14G20   30.15F
$$

COZ086-089-092>099-242000-
...SOUTHEAST COLORADO...

CITY           SKY/WX    TMP DP  RH WIND       PRES   REMARKS
PUEBLO         FAIR      93  54  26 S9        30.11F
LA JUNTA       FAIR      86  61  42 VRB6      30.11F
LAMAR          FAIR      88  62  41 E6        30.06F
SPRINGFIELD      N/A     84  56  38 E8G17     30.12S
$$




USA.gov is the U.S. government's official web portal to all federal, state and local government web resources and services.